Wind_Speed
19 20 22 24 24 24 25 22 21 26 27 30 32 34 35 38 38 35 31 33 32 37 44 40 41 48 58 64 53 54 57 58 57 54 51 53 55 50 51 43 43 39 35 39
20 22 22 23 23 23 22 22 22 26 27 31 34 36 37 38 36 33 29 31 37 37 31 32 33 28 26 31 42 51 56 56 56 53 51 50 65 53 46 41 38 41 41 39
21 22 21 22 22 22 20 21 25 27 28 31 33 34 37 37 35 35 33 35 35 35 35 31 25 24 17 20 25 33 48 50 59 54 51 50 50 44 45 43 37 39 35 44
21 22 20 21 23 22 20 20 25 26 29 32 34 37 35 35 33 34 29 31 32 33 30 25 24 24 26 13 7 15 30 51 57 58 54 53 40 41 44 47 45 26 33 31
21 22 20 21 22 20 19 20 24 25 29 33 35 37 33 35 34 32 27 30 34 32 27 21 19 22 18 12 8 10 7 38 51 52 52 46 53 36 26 44 39 28 22 31
22 21 20 21 21 19 19 21 23 25 28 31 36 37 33 35 33 33 31 29 32 34 27 25 15 10 12 11 7 3 1 32 32 50 48 25 38 38 42 31 26 26 24 26
20 21 20 22 21 19 18 20 22 26 27 31 36 37 32 34 32 31 32 27 30 37 36 36 22 9 8 9 5 2 13 29 29 33 17 24 31 36 30 29 28 26 25 23
19 19 21 21 19 18 19 19 20 25 26 29 33 35 33 32 33 29 29 25 23 26 30 33 25 18 13 12 11 2 12 14 6 17 11 23 37 47 29 32 26 30 33 30
19 19 21 21 19 20 20 20 20 25 24 27 32 34 33 31 33 28 26 26 23 21 25 25 23 19 18 17 9 9 7 11 17 2 6 17 21 23 30 22 29 20 15 22
19 20 20 20 19 21 21 21 23 24 26 28 31 33 32 29 30 31 26 24 25 22 18 20 22 20 20 19 16 10 8 8 4 4 3 8 14 21 24 30 23 19 16 24
21 22 20 21 19 21 21 23 24 24 25 26 31 32 34 27 27 28 27 25 24 25 22 15 16 18 18 14 13 10 10 9 8 8 4 6 10 10 14 14 17 25 30 34
22 22 22 21 20 23 23 23 25 24 24 25 29 31 35 26 24 26 27 25 21 21 21 18 13 14 14 13 9 4 4 4 6 5 4 7 4 4 5 7 8 11 15 19
24 23 23 23 23 25 26 27 25 24 23 24 27 29 31 26 21 23 24 25 22 18 18 18 15 12 11 10 11 11 7 3 5 4 4 5 7 7 7 8 11 12 16 19
26 26 27 27 26 27 27 28 28 22 23 24 25 27 30 26 21 20 23 23 24 20 16 15 17 14 12 11 12 13 12 12 10 11 11 11 11 13 13 11 9 8 10 7
28 28 29 30 28 27 28 31 32 23 22 22 23 26 28 25 20 17 20 22 22 22 20 16 15 15 11 9 11 10 14 16 15 13 12 7 2 2 2 3 2 1 1 3
32 30 31 31 31 29 25 29 33 24 22 21 24 23 25 27 20 17 17 19 21 20 22 21 15 12 14 10 5 6 6 3 2 7 6 5 4 3 3 1 2 2 4 6
34 33 34 32 33 33 25 27 30 24 22 22 22 23 26 27 21 17 16 19 19 19 21 22 23 17 14 11 8 4 2 2 3 3 3 3 4 6 8 5 1 5 9 12
35 36 37 34 35 34 29 28 30 24 24 22 22 22 25 26 22 16 17 19 18 17 20 23 24 23 18 12 10 7 8 7 4 3 3 4 8 7 3 2 7 11 14 17
38 38 38 37 36 34 29 29 28 26 24 22 21 21 24 26 24 18 16 17 18 19 20 20 19 18 16 10 8 7 9 9 7 5 6 6 5 4 6 10 14 18 20 23
41 40 40 38 40 40 29 27 31 30 23 24 21 21 24 26 25 19 16 17 19 19 18 17 16 15 12 10 10 13 11 9 7 7 8 8 6 7 12 16 19 21 23 28
43 40 41 41 41 39 31 31 30 30 27 23 21 20 24 25 24 19 16 16 18 18 15 16 15 14 11 10 12 14 12 9 8 8 7 7 9 11 14 16 19 22 25 29
43 42 41 41 41 40 33 31 32 33 29 24 20 19 21 25 24 20 17 16 17 17 15 16 16 13 14 13 16 16 13 11 10 10 9 9 10 13 17 20 22 25 29 33
46 43 43 40 36 37 36 33 33 32 30 24 21 19 22 26 25 21 19 18 17 17 16 17 18 16 16 16 18 18 17 15 14 13 13 12 13 17 22 25 27 30 34 38
45 44 46 43 31 35 35 37 37 32 28 25 23 21 23 26 24 21 20 20 18 17 17 18 19 18 18 19 21 21 20 18 18 17 17 16 17 20 24 27 31 35 39 41
45 45 43 41 33 38 32 37 34 29 25 25 26 24 24 26 25 24 21 21 20 19 18 18 21 21 20 22 24 25 24 23 22 21 21 21 22 25 27 30 33 37 41 46
45 45 44 40 40 37 33 37 30 26 24 25 27 24 24 25 25 23 23 23 22 21 20 19 21 23 25 25 25 26 25 25 25 26 26 26 28 30 32 33 36 39 43 49
Wind_Direction
304 312 317 318 324 329 336 330 326 327 328 324 318 319 317 318 324 319 315 310 307 305 297 297 288 281 266 254 251 240 234 232 231 232 227 226 228 228 239 226 233 240 246 238
307 314 317 320 322 330 334 329 329 328 331 328 325 322 324 327 329 329 323 322 329 318 319 319 312 311 292 264 248 243 235 226 224 220 221 227 228 230 234 232 231 241 245 246
306 312 316 316 318 329 331 329 329 329 336 330 328 330 332 335 338 338 340 339 338 340 338 337 342 345 328 273 252 241 233 224 219 212 215 223 223 224 229 235 239 247 238 247
308 311 314 314 316 329 325 328 331 334 337 332 334 340 336 343 345 346 338 342 334 347 352 347 12 10 1 5 233 214 216 215 208 205 215 222 221 234 234 231 237 233 241 249
307 308 309 312 318 326 323 330 334 336 338 337 343 341 340 348 352 349 339 345 345 358 6 4 15 18 6 353 352 85 207 210 205 205 217 222 236 219 225 228 229 227 244 244
303 306 307 312 318 319 318 326 333 335 341 342 344 347 345 348 355 354 351 352 357 6 8 352 2 18 19 8 353 304 250 190 193 210 207 228 220 218 211 214 225 240 246 249
300 300 306 313 319 313 314 323 327 336 341 343 345 350 341 346 356 358 357 357 1 2 6 358 5 343 6 5 25 23 192 204 204 204 263 219 203 216 208 228 233 236 244 254
294 295 303 310 315 307 310 316 324 332 337 344 345 349 344 344 353 1 359 359 359 4 5 9 7 33 24 40 54 69 258 209 168 233 209 210 216 222 221 225 254 232 241 243
285 291 299 309 310 307 309 311 318 325 334 341 345 348 348 342 347 357 0 358 6 4 6 7 35 45 42 42 1 143 142 210 241 357 232 213 221 232 218 230 221 243 268 278
284 287 298 306 308 305 306 306 313 322 331 339 346 347 350 342 344 349 357 359 357 9 3 1 7 25 48 52 66 48 46 64 97 39 112 243 226 231 232 223 258 251 253 269
281 286 296 299 302 303 304 301 306 316 327 333 341 345 346 345 340 345 350 359 356 360 6 357 349 357 21 66 50 39 63 92 97 93 141 212 231 244 232 242 250 253 252 266
276 282 292 296 301 301 301 302 300 311 324 329 337 342 346 345 339 341 345 353 359 357 359 4 355 338 350 357 359 15 23 56 96 86 109 117 119 142 183 211 232 255 261 262
273 279 285 289 295 297 299 302 299 304 316 324 331 336 344 343 338 334 336 338 349 356 355 353 358 3 325 314 311 321 314 274 293 297 297 301 305 302 295 291 282 275 273 266
272 279 283 291 298 298 298 298 302 299 310 321 326 334 341 339 338 330 328 331 332 341 344 346 344 346 348 332 285 282 284 291 297 296 296 292 288 291 292 292 292 298 289 288
270 274 281 287 294 297 300 299 299 296 300 317 322 328 336 336 335 327 323 325 325 326 331 336 330 323 326 344 345 315 284 275 273 285 291 286 238 189 123 92 82 78 305 321
268 272 276 280 290 294 300 298 297 293 300 312 317 321 329 335 333 326 321 317 315 314 310 311 305 302 303 301 331 358 28 78 167 158 167 189 167 128 113 147 177 243 300 306
269 270 274 278 284 291 298 288 298 288 294 305 312 316 322 330 332 326 322 315 311 313 303 299 300 292 282 265 250 257 265 184 200 191 170 164 129 140 144 161 272 336 324 321
269 269 274 277 279 286 293 288 293 290 293 302 304 312 315 326 326 320 317 320 310 306 296 294 293 298 297 262 237 217 234 245 206 176 180 158 138 141 150 302 305 309 313 311
267 269 275 275 277 281 296 287 286 291 291 295 299 306 311 323 324 312 316 310 306 305 300 297 292 290 291 261 230 219 218 210 200 198 188 169 188 227 282 312 307 306 309 308
265 266 272 278 275 277 293 280 277 285 290 292 297 302 307 314 321 311 310 310 305 307 307 296 288 278 272 246 217 209 204 199 200 196 195 214 246 286 297 296 297 300 301 303
262 264 272 273 274 277 291 282 280 284 290 293 295 298 300 308 317 311 302 305 304 306 296 292 285 272 257 222 212 211 204 205 207 212 233 265 285 292 295 297 298 302 308 309
255 257 269 271 276 283 283 282 279 281 286 290 291 298 299 303 315 309 297 298 300 301 289 282 279 264 250 238 210 210 210 212 221 239 255 277 294 300 304 309 314 313 309 306
252 260 263 264 272 281 282 278 277 278 283 285 289 292 289 298 312 307 293 292 294 296 289 279 273 263 247 236 217 215 218 222 232 248 262 277 296 307 312 317 315 314 312 311
253 260 262 266 272 276 275 276 277 280 283 280 286 285 288 297 304 304 292 290 289 291 287 284 272 260 243 228 221 223 228 234 244 255 268 282 293 297 303 306 312 314 315 312
255 257 268 267 269 265 274 276 280 283 283 282 282 282 284 291 295 298 290 285 282 285 282 280 277 261 243 227 227 228 232 241 251 260 269 278 283 288 295 301 306 307 309 310
255 260 262 258 261 265 267 274 280 276 272 282 282 279 277 283 285 290 290 284 278 277 278 271 272 261 248 239 237 238 242 248 257 264 271 277 283 289 294 300 303 304 307 308
Height
5775 5774 5771 5768 5765 5761 5758 5754 5751 5747 5743 5737 5730 5723 5715 5706 5699 5691 5683 5677 5670 5663 5653 5644 5637 5628 5622 5622 5627 5636 5647 5657 5667 5679 5689 5695 5698 5709 5713 5717 5722 5728 5732 5736
5772 5769 5767 5763 5761 5757 5755 5751 5748 5744 5738 5732 5725 5718 5709 5701 5693 5685 5678 5670 5661 5653 5642 5631 5622 5612 5606 5605 5610 5617 5629 5641 5655 5669 5681 5683 5688 5694 5703 5709 5716 5720 5723 5727
5767 5766 5763 5760 5757 5754 5751 5748 5744 5741 5735 5728 5721 5715 5702 5695 5688 5678 5670 5662 5655 5643 5634 5624 5616 5608 5601 5597 5600 5605 5615 5628 5643 5659 5670 5674 5680 5685 5695 5701 5708 5712 5710 5719
5763 5761 5759 5757 5754 5751 5748 5745 5741 5736 5731 5724 5717 5710 5700 5692 5685 5675 5668 5662 5653 5643 5633 5625 5616 5609 5602 5600 5598 5602 5608 5619 5637 5650 5660 5669 5673 5678 5684 5697 5701 5705 5708 5708
5760 5757 5755 5753 5751 5748 5745 5741 5738 5733 5728 5720 5714 5706 5696 5689 5683 5675 5667 5660 5651 5641 5633 5626 5617 5613 5609 5607 5605 5607 5614 5620 5634 5647 5655 5665 5666 5672 5677 5690 5694 5699 5701 5703
5755 5753 5751 5749 5747 5744 5741 5738 5734 5730 5723 5718 5710 5701 5693 5687 5681 5674 5665 5659 5650 5641 5635 5628 5622 5616 5614 5614 5614 5615 5619 5627 5637 5644 5653 5654 5661 5667 5677 5680 5687 5691 5694 5697
5750 5748 5747 5745 5744 5741 5738 5734 5730 5727 5721 5715 5706 5699 5691 5685 5679 5673 5665 5659 5652 5644 5635 5628 5623 5619 5619 5618 5618 5621 5627 5634 5638 5646 5647 5650 5657 5663 5666 5674 5681 5684 5688 5690
5745 5745 5743 5741 5739 5737 5734 5731 5727 5721 5717 5713 5705 5698 5691 5684 5677 5672 5666 5660 5656 5651 5645 5635 5628 5624 5621 5622 5622 5626 5630 5635 5642 5647 5644 5648 5655 5660 5664 5669 5674 5677 5679 5681
5741 5740 5738 5736 5735 5734 5731 5729 5726 5720 5715 5710 5704 5696 5689 5682 5677 5672 5667 5662 5657 5654 5649 5644 5640 5635 5630 5628 5629 5629 5631 5636 5640 5641 5642 5646 5653 5657 5660 5664 5667 5670 5673 5674
5737 5736 5735 5733 5732 5730 5728 5727 5723 5719 5712 5707 5703 5695 5688 5682 5676 5672 5668 5663 5658 5655 5653 5648 5645 5643 5640 5636 5634 5633 5634 5635 5637 5639 5642 5645 5649 5653 5656 5659 5662 5665 5666 5668
5731 5731 5732 5729 5728 5726 5724 5721 5719 5717 5712 5705 5700 5695 5688 5681 5675 5670 5666 5663 5660 5655 5653 5651 5648 5646 5644 5642 5642 5641 5639 5639 5640 5640 5644 5647 5649 5650 5651 5655 5658 5659 5661 5662
5726 5726 5725 5724 5723 5721 5719 5716 5714 5713 5710 5703 5698 5694 5687 5681 5675 5670 5665 5662 5660 5657 5654 5652 5650 5648 5647 5646 5646 5645 5645 5644 5643 5644 5647 5649 5650 5651 5651 5652 5655 5655 5655 5656
5721 5721 5720 5719 5719 5717 5715 5712 5709 5708 5705 5701 5696 5692 5685 5679 5675 5671 5666 5662 5660 5657 5654 5652 5650 5648 5647 5646 5646 5646 5647 5646 5647 5647 5647 5648 5649 5650 5651 5651 5653 5653 5654 5654
5715 5715 5714 5714 5713 5712 5710 5707 5705 5704 5701 5697 5693 5689 5683 5678 5674 5670 5667 5662 5659 5657 5654 5651 5648 5646 5646 5645 5645 5643 5643 5644 5644 5645 5645 5646 5646 5647 5646 5647 5648 5648 5650 5650
5709 5708 5708 5707 5705 5706 5705 5702 5700 5700 5697 5694 5691 5686 5681 5675 5673 5670 5666 5661 5658 5655 5651 5649 5647 5646 5644 5644 5642 5640 5639 5640 5641 5642 5643 5643 5644 5645 5645 5645 5646 5647 5648 5648
5701 5702 5700 5700 5699 5698 5701 5697 5694 5694 5692 5690 5686 5683 5678 5673 5669 5667 5665 5661 5658 5656 5653 5651 5651 5647 5644 5641 5641 5642 5641 5640 5642 5641 5643 5645 5645 5645 5645 5646 5646 5646 5646 5646
5695 5694 5693 5695 5692 5691 5695 5692 5690 5688 5686 5685 5682 5679 5674 5669 5665 5663 5661 5659 5656 5653 5651 5648 5646 5647 5646 5644 5641 5640 5642 5642 5643 5644 5644 5644 5644 5644 5645 5645 5645 5645 5644 5644
5689 5687 5685 5686 5686 5686 5689 5686 5684 5683 5681 5679 5677 5674 5671 5665 5661 5659 5657 5655 5653 5650 5648 5645 5643 5641 5642 5643 5642 5641 5641 5642 5642 5641 5642 5643 5644 5644 5643 5644 5644 5643 5642 5640
5681 5680 5679 5677 5678 5679 5682 5680 5678 5676 5677 5674 5672 5669 5666 5661 5657 5655 5653 5651 5649 5646 5644 5643 5640 5639 5638 5639 5640 5641 5641 5642 5641 5641 5642 5642 5643 5642 5641 5640 5640 5639 5636 5634
5672 5672 5672 5670 5669 5670 5675 5673 5671 5669 5672 5668 5667 5665 5662 5657 5653 5650 5649 5647 5646 5642 5640 5638 5638 5637 5636 5637 5638 5640 5640 5641 5642 5641 5641 5642 5642 5640 5639 5639 5637 5635 5633 5629
5663 5663 5663 5661 5660 5663 5667 5664 5663 5663 5666 5662 5661 5659 5656 5652 5649 5646 5644 5643 5641 5639 5637 5635 5634 5635 5634 5635 5636 5637 5638 5638 5639 5639 5640 5639 5638 5637 5637 5635 5633 5631 5628 5624
5654 5654 5655 5654 5654 5656 5658 5657 5657 5656 5655 5656 5655 5654 5651 5646 5643 5641 5639 5637 5636 5634 5633 5632 5631 5631 5632 5633 5633 5634 5635 5636 5637 5637 5637 5636 5635 5635 5633 5631 5628 5625 5623 5619
5643 5646 5645 5647 5648 5650 5647 5648 5647 5649 5649 5649 5648 5646 5643 5640 5638 5635 5633 5632 5631 5630 5629 5628 5628 5628 5628 5629 5631 5632 5633 5633 5633 5633 5633 5632 5631 5629 5627 5625 5624 5621 5617 5613
5633 5634 5635 5636 5644 5640 5639 5639 5639 5642 5642 5641 5641 5640 5637 5635 5632 5630 5627 5626 5624 5624 5624 5624 5623 5624 5624 5625 5626 5628 5629 5629 5628 5629 5628 5627 5626 5625 5623 5621 5617 5614 5609 5605
5623 5623 5629 5631 5634 5628 5631 5631 5633 5634 5633 5633 5633 5632 5631 5629 5626 5624 5621 5620 5618 5618 5618 5618 5618 5619 5620 5620 5622 5622 5622 5622 5623 5623 5622 5622 5621 5619 5617 5614 5610 5606 5602 5597
5613 5618 5618 5620 5622 5621 5623 5623 5626 5626 5625 5625 5625 5624 5622 5621 5619 5618 5616 5614 5612 5611 5611 5611 5611 5613 5614 5614 5615 5616 5616 5616 5616 5616 5615 5614 5613 5611 5609 5606 5603 5598 5592 5586